Weather History for Holland, MI

Change the Weather History Date:

Thursday, February 21, 2013

  Actual Average Record
Temperature  
Mean Temperature 26 °F 30 °F  
Max Temperature 28 °F 37 °F 62 °F (1983)
Min Temperature 23 °F 23 °F -7 °F (1968)
Degree Days  
Heating Degree Days 39 35  
Month to date heating degree days 846 787  
Since 1 July heating degree days 4022 4261  
Cooling Degree Days 0 0  
Month to date cooling degree days 0 0  
Year to date cooling degree days 0 0  
Moisture  
Dew Point 15 °F    
Average Humidity 64    
Maximum Humidity 68    
Minimum Humidity 60    
Precipitation  
Precipitation 0.00 in 0.08 in 3.11 in (1997)
Month to date precipitation 1.83 1.27  
Year to date precipitation 4.99 3.36  
Sea Level Pressure  
Sea Level Pressure 30.33 in    
Wind  
Wind Speed 9 mph (NE)    
Max Wind Speed 21 mph    
Max Gust Speed 26 mph    
Visibility 10 miles    
Events      
T = Trace of Precipitation, MM = Missing Value Source: NWS Daily Summary

Daily Weather History Graph

Daily Weather History Graph

Search for Another Location

Airport:

Trip Planner

Search our weather history database for the weather conditions in past years. The results will help you decide how hot, cold, wet, or windy it might be!

Date:

Astronomy

Feb. 21, 2013 Rise Set
Actual Time 7:32 AM EST 6:24 PM EST
Civil Twilight 7:03 AM EST 6:52 PM EST
Nautical Twilight 6:30 AM EST 7:25 PM EST
Astronomical Twilight 5:58 AM EST 7:58 PM EST
Moon 2:34 PM EST (2/21) 4:40 AM EST (2/21)
Length of Visible Light 11h 49m
Length of Day
10h 51m
Waxing Gibbous, 83% of the Moon is Illuminated
Feb 21
Waxing Gibbous
Feb 25
Full
Mar 4
Last Quarter
Mar 11
New
Mar 19
First Quarter

Hourly Weather History & Observations

Time (EST) Temp. Windchill Dew Point Humidity Pressure Visibility Wind Dir Wind Speed Gust Speed Precip Events Conditions
12:53 AM 24.1 °F 18.2 °F 12.9 °F 62% 30.35 in 10.0 mi North 4.6 mph - N/A   Overcast
1:53 AM 23.0 °F 13.1 °F 14.0 °F 68% 30.36 in 10.0 mi NNW 9.2 mph - N/A   Overcast
2:53 AM 23.0 °F 14.7 °F 14.0 °F 68% 30.36 in 10.0 mi NNW 6.9 mph - N/A   Overcast
3:53 AM 23.0 °F 15.8 °F 14.0 °F 68% 30.36 in 10.0 mi NNW 5.8 mph - N/A   Overcast
4:53 AM 23.0 °F 15.8 °F 14.0 °F 68% 30.36 in 10.0 mi North 5.8 mph - N/A   Overcast
5:53 AM 24.1 °F 15.2 °F 15.1 °F 69% 30.37 in 10.0 mi NNW 8.1 mph - N/A   Overcast
6:53 AM 24.1 °F 19.7 °F 16.0 °F 71% 30.40 in 10.0 mi NNW 3.5 mph - N/A   Overcast
7:53 AM 25.0 °F 17.1 °F 16.0 °F 69% 30.36 in 10.0 mi NNE 6.9 mph 16.1 mph N/A   Overcast
8:10 AM 24.8 °F 16.1 °F 15.8 °F 69% 30.32 in 10.0 mi NNE 8.1 mph 16.1 mph N/A   Overcast
8:53 AM 25.0 °F 18.1 °F 16.0 °F 69% 30.38 in 10.0 mi NNE 5.8 mph - N/A   Overcast
9:15 AM 24.8 °F 16.1 °F 15.8 °F 69% 30.36 in 10.0 mi NNE 8.1 mph - N/A   Overcast
9:53 AM 25.0 °F 18.1 °F 16.0 °F 69% 30.38 in 10.0 mi NE 5.8 mph - N/A   Overcast
10:53 AM 26.1 °F 19.4 °F 17.1 °F 69% 30.38 in 10.0 mi NNE 5.8 mph - N/A   Overcast
11:53 AM 27.0 °F 18.7 °F 17.1 °F 66% 30.38 in 10.0 mi ENE 8.1 mph - N/A   Overcast
1:53 PM 28.0 °F 18.6 °F 17.1 °F 63% 30.35 in 10.0 mi East 10.4 mph - N/A   Overcast
2:53 PM 28.0 °F 18.6 °F 17.1 °F 63% 30.30 in 10.0 mi East 10.4 mph - N/A   Overcast
3:53 PM 28.0 °F 19.3 °F 17.1 °F 63% 30.30 in 10.0 mi East 9.2 mph - N/A   Overcast
4:38 PM 26.6 °F 15.7 °F 15.8 °F 64% 30.28 in 10.0 mi East 12.7 mph - N/A   Scattered Clouds
4:53 PM 26.1 °F 14.5 °F 16.0 °F 66% 30.32 in 10.0 mi East 13.8 mph - N/A   Clear
5:53 PM 25.0 °F 14.2 °F 15.1 °F 66% 30.31 in 10.0 mi East 11.5 mph - N/A   Clear
6:25 PM 24.8 °F 14.6 °F 15.8 °F 69% 30.28 in 10.0 mi East 10.4 mph - N/A   Mostly Cloudy
6:53 PM 25.0 °F 14.2 °F 15.1 °F 66% 30.29 in 10.0 mi East 11.5 mph - N/A   Mostly Cloudy
7:04 PM 24.8 °F 14.0 °F 15.8 °F 69% 30.26 in 10.0 mi East 11.5 mph 19.6 mph N/A   Scattered Clouds
7:53 PM 24.1 °F 12.0 °F 14.0 °F 65% 30.29 in 10.0 mi East 13.8 mph 20.7 mph N/A   Clear
8:53 PM 23.0 °F 10.6 °F 12.9 °F 65% 30.25 in 10.0 mi East 13.8 mph - N/A   Clear
11:53 PM 23.0 °F 9.6 °F 15.1 °F 72% 30.17 in 10.0 mi East 16.1 mph - N/A   Scattered Clouds